M0CJS Weather Reports


Display with metric or nautical units.
time (UTC)temp
F
wind
direction
speed
MPH
gust
MPH
rain 1hr
in
rain 24hr
in
rain mn
in
humidity
%
barometer
mb
20260901080535 61 203 3.0 7.0 0.00 0.03 0.00 83 1021.7
20260901075515 61 203 5.0 9.0 0.00 0.03 0.00 83 1021.6
20260901074515 60 203 3.0 8.0 0.00 0.03 0.00 85 1021.6
20260901073537 59 203 6.0 10.0 0.00 0.03 0.00 85 1021.7
20260901072517 58 203 3.0 6.0 0.00 0.03 0.00 87 1021.5
20260901071537 57 225 1.0 4.0 0.00 0.03 0.00 88 1021.4
20260901070517 56 203 1.0 4.0 0.00 0.03 0.00 90 1021.2
20260901065517 56 180 1.0 4.0 0.00 0.03 0.00 91 1021.2
20260901064517 55 203 2.0 5.0 0.00 0.03 0.00 91 1021.1
20260901063537 54 0.0 2.0 0.00 0.03 0.00 94 1021.2
20260901062517 52 0.0 1.0 0.00 0.03 0.00 96 1021.1
20260901061517 51 0.0 3.0 0.00 0.03 0.00 97 1021.1
20260901060517 50 0.0 1.0 0.00 0.03 0.00 97 1021.0
20260901055517 50 0.0 2.0 0.00 0.03 0.00 97 1020.9
20260901054517 50 0.0 0.0 0.00 0.03 0.00 97 1020.9
20260901053517 50 0.0 0.0 0.00 0.03 0.00 96 1020.8
20260901052517 50 0.0 0.0 0.00 0.03 0.00 96 1021.0
20260901051517 50 0.0 2.0 0.00 0.03 0.00 96 1020.9
20260901050517 51 225 2.0 4.0 0.00 0.03 0.00 96 1020.9
20260901045517 51 203 3.0 6.0 0.00 0.03 0.00 96 1020.9
20260901044517 51 180 2.0 5.0 0.00 0.03 0.00 96 1020.8
20260901043517 51 203 3.0 6.0 0.00 0.03 0.00 96 1020.7
20260901042517 51 203 1.0 2.0 0.00 0.03 0.00 96 1020.6
20260901041537 51 203 2.0 5.0 0.00 0.03 0.00 95 1020.5
20260901040537 51 0.0 2.0 0.00 0.03 0.00 95 1020.5
20260901035517 52 203 1.0 3.0 0.00 0.03 0.00 95 1020.4
20260901034517 52 203 3.0 5.0 0.00 0.03 0.00 95 1020.4
20260901033517 52 203 3.0 6.0 0.00 0.03 0.00 94 1020.5
20260901032517 52 225 4.0 6.0 0.00 0.03 0.00 94 1020.4
20260901031517 52 203 4.0 7.0 0.00 0.03 0.00 94 1020.4
20260901030517 52 180 2.0 4.0 0.00 0.03 0.00 94 1020.4
20260901025536 52 0.0 2.0 0.00 0.03 0.00 94 1020.4
20260901024516 53 203 3.0 4.0 0.00 0.03 0.00 94 1020.5
20260901023516 53 180 3.0 4.0 0.00 0.03 0.00 94 1020.5
20260901022516 53 203 1.0 4.0 0.00 0.03 0.00 93 1020.5
20260901021516 53 180 1.0 3.0 0.00 0.03 0.00 93 1020.6
20260901020516 54 203 3.0 7.0 0.00 0.03 0.00 92 1020.6
20260901015536 54 203 3.0 7.0 0.00 0.29 0.00 92 1020.5
20260901014537 54 203 3.0 6.0 0.00 0.29 0.00 92 1020.5
20260901013522 54 203 5.0 8.0 0.00 0.29 0.00 92 1020.6
20260901012518 54 203 4.0 8.0 0.00 0.29 0.00 92 1020.5
20260901011518 54 225 2.0 6.0 0.00 0.29 0.00 92 1020.6
20260901010518 54 248 2.0 4.0 0.00 0.29 0.00 92 1020.5
20260901005518 54 225 2.0 5.0 0.00 0.55 0.00 92 1020.5
20260901004538 54 203 2.0 5.0 0.00 0.55 0.00 92 1020.5
20260901003518 54 225 3.0 4.0 0.00 0.55 0.00 91 1020.5
20260901002518 54 203 2.0 4.0 0.00 0.55 0.00 91 1020.5
20260901001518 55 225 1.0 3.0 0.00 0.55 0.00 91 1020.5
20260901000518 55 225 1.0 3.0 0.00 0.55 0.00 90 1020.6
20260831235516 55 270 1.0 4.0 0.00 0.55 0.00 89 1020.4
20260831234516 56 270 1.0 3.0 0.00 0.55 0.00 89 1020.4
20260831233516 56 270 1.0 3.0 0.00 0.55 0.00 88 1020.3
20260831232518 56 270 1.0 2.0 0.00 0.55 0.00 88 1020.3
20260831231536 56 270 1.0 3.0 0.00 0.55 0.00 88 1020.3
20260831230516 57 248 1.0 2.0 0.00 0.55 0.00 86 1020.1
20260831225516 57 270 1.0 3.0 0.00 0.55 0.55 86 1020.2
20260831224516 57 270 1.0 3.0 0.00 0.55 0.55 85 1020.2
20260831223516 57 270 2.0 7.0 0.00 0.55 0.55 85 1020.2
20260831222516 58 270 3.0 7.0 0.00 0.55 0.55 85 1020.1
20260831221516 57 270 3.0 8.0 0.00 0.55 0.55 85 1020.1
20260831220518 57 270 3.0 7.0 0.00 0.55 0.55 86 1020.1
20260831215516 57 270 3.0 7.0 0.00 0.55 0.55 86 1020.0
20260831214516 57 270 2.0 4.0 0.00 0.55 0.55 86 1020.0
20260831213516 57 270 3.0 7.0 0.00 0.55 0.55 86 1020.0
20260831212518 57 293 3.0 6.0 0.00 0.55 0.55 86 1019.9
20260831211516 57 293 3.0 5.0 0.00 0.55 0.55 86 1019.7
20260831210516 57 293 2.0 4.0 0.00 0.55 0.55 87 1019.6
20260831205516 57 293 2.0 4.0 0.00 0.56 0.55 88 1019.5
20260831204516 57 293 2.0 4.0 0.00 0.56 0.55 88 1019.5
20260831203516 57 293 2.0 4.0 0.00 0.56 0.55 87 1019.5
20260831203016 57 293 1.0 3.0 0.00 0.56 0.55 87 1019.4
20260831202016 58 293 2.0 3.0 0.00 0.56 0.55 85 1019.5
20260831201036 58 293 3.0 6.0 0.00 0.56 0.55 84 1019.2
20260831200016 59 293 4.0 7.0 0.00 0.56 0.55 83 1019.1
20260831195016 59 293 4.0 7.0 0.00 0.56 0.55 82 1019.1
20260831194016 59 293 4.0 8.0 0.00 0.56 0.55 81 1019.0
20260831193016 59 315 5.0 10.0 0.00 0.56 0.55 82 1018.7
20260831192016 59 293 4.0 6.0 0.00 0.56 0.55 84 1018.5
20260831191016 60 293 3.0 7.0 0.00 0.56 0.55 82 1018.4
20260831190016 60 293 4.0 9.0 0.00 0.56 0.55 81 1018.2
20260831185018 61 315 6.0 12.0 0.00 0.56 0.55 80 1018.0
20260831184016 62 293 6.0 9.0 0.00 0.56 0.55 80 1018.0
20260831183018 62 293 6.0 10.0 0.00 0.56 0.55 80 1017.8
20260831182058 62 293 4.0 9.0 0.00 0.56 0.55 81 1017.7
20260831181016 62 293 4.0 8.0 0.00 0.56 0.55 81 1017.6
20260831180016 62 293 5.0 10.0 0.00 0.56 0.55 81 1017.4
20260831175021 62 293 4.0 8.0 0.00 0.56 0.55 82 1017.4
20260831174016 63 293 5.0 10.0 0.00 0.56 0.55 81 1017.2
20260831173015 63 293 7.0 13.0 0.00 0.56 0.55 80 1017.1
20260831172152 64 315 7.0 13.0 0.00 0.56 0.55 80 1016.9
20260831171016 64 293 6.0 13.0 0.00 0.56 0.55 80 1016.8
20260831170037 64 315 8.0 14.0 0.00 0.56 0.55 79 1016.7
20260831165015 65 315 6.0 11.0 0.00 0.56 0.55 77 1016.6
20260831164015 66 293 7.0 13.0 0.00 0.56 0.55 77 1016.4
20260831163015 65 293 5.0 10.0 0.00 0.56 0.55 77 1016.3
20260831162016 66 293 7.0 13.0 0.00 0.56 0.55 77 1016.2
20260831161016 66 293 7.0 15.0 0.00 0.56 0.55 77 1016.1
20260831160015 66 293 6.0 10.0 0.00 0.56 0.55 78 1016.0
20260831155035 66 293 6.0 10.0 0.00 0.56 0.55 78 1015.9
20260831154015 66 315 7.0 14.0 0.00 0.56 0.55 76 1015.8
20260831153035 66 315 7.0 13.0 0.00 0.56 0.55 76 1015.7
20260831152015 66 315 6.0 10.0 0.00 0.56 0.55 77 1015.6
20260831151015 66 315 6.0 10.0 0.00 0.56 0.55 78 1015.5
20260831150015 67 315 8.0 13.0 0.00 0.56 0.55 74 1015.5
20260831145015 67 0 6.0 15.0 0.00 0.56 0.55 77 1015.3
20260831144015 67 293 8.0 13.0 0.00 0.56 0.55 76 1015.3
20260831143015 67 270 6.0 13.0 0.00 0.56 0.55 78 1015.2
20260831142015 67 293 6.0 11.0 0.00 0.56 0.55 79 1014.9
20260831141015 67 293 8.0 15.0 0.00 0.56 0.55 77 1014.8
20260831140015 67 293 7.0 15.0 0.00 0.56 0.55 78 1014.7
20260831135015 67 293 7.0 12.0 0.00 0.56 0.55 79 1014.4
20260831134017 65 293 6.0 13.0 0.00 0.56 0.55 83 1014.4
20260831133017 66 293 8.0 15.0 0.00 0.56 0.55 82 1014.3
20260831132017 66 293 8.0 13.0 0.00 0.56 0.55 83 1014.3
20260831131017 66 293 8.0 13.0 0.00 0.56 0.55 84 1014.1
20260831130037 65 293 8.0 15.0 0.00 0.56 0.55 86 1014.2
20260831125017 65 293 7.0 14.0 0.00 0.56 0.55 85 1013.9
20260831124017 65 293 8.0 12.0 0.00 0.56 0.55 85 1013.7
20260831123017 65 270 5.0 10.0 0.02 0.56 0.55 88 1013.5
20260831122017 66 315 7.0 14.0 0.03 0.56 0.55 86 1013.4
20260831121017 66 315 6.0 11.0 0.03 0.56 0.55 90 1013.2
20260831120037 66 293 6.0 12.0 0.03 0.56 0.55 93 1013.1
20260831115017 65 293 6.0 10.0 0.03 0.56 0.55 94 1013.0
20260831114017 63 293 4.0 8.0 0.03 0.56 0.55 95 1012.8
20260831113017 63 293 5.0 10.0 0.02 0.54 0.54 94 1012.7
20260831112017 63 0 6.0 11.0 0.00 0.53 0.52 91 1012.7
20260831111017 63 293 8.0 13.0 0.00 0.53 0.52 90 1012.5
20260831110017 63 293 5.0 11.0 0.00 0.53 0.52 89 1012.3
20260831105057 63 293 6.0 11.0 0.00 0.53 0.52 88 1012.1
20260831104017 63 293 6.0 11.0 0.00 0.53 0.52 90 1012.0
20260831103037 62 293 5.0 11.0 0.00 0.53 0.52 90 1011.9
20260831102017 64 293 7.0 13.0 0.00 0.53 0.52 85 1011.8
20260831101017 64 293 7.0 12.0 0.00 0.53 0.52 83 1011.7
20260831100017 64 293 7.0 16.0 0.00 0.53 0.52 83 1011.6
20260831095017 66 293 7.0 13.0 0.00 0.53 0.52 81 1011.5
20260831094017 67 270 5.0 10.0 0.00 0.53 0.52 82 1011.4
20260831093016 65 293 7.0 12.0 0.00 0.53 0.52 82 1011.3
20260831092017 63 270 4.0 13.0 0.00 0.53 0.52 88 1011.1
20260831091016 62 270 7.0 11.0 0.00 0.53 0.52 87 1011.0
20260831090017 63 270 6.0 11.0 0.00 0.53 0.52 86 1010.9
20260831085016 64 293 5.0 11.0 0.00 0.53 0.52 84 1010.6
20260831084016 64 270 4.0 8.0 0.00 0.53 0.52 86 1010.5
20260831083016 63 270 7.0 11.0 0.00 0.53 0.52 86 1010.3
20260831082017 63 293 7.0 12.0 0.00 0.53 0.52 87 1009.9